Year,Month,Day,Hour,Minute,Value (Times are PST for temperature in C)
2012,12,06,00,00,4.00
2012,12,06,00,01,3.90
2012,12,06,00,02,3.90
2012,12,06,00,03,3.90
2012,12,06,00,04,3.90
2012,12,06,00,05,3.90
2012,12,06,00,06,4.00
2012,12,06,00,07,4.00
2012,12,06,00,08,4.00
2012,12,06,00,09,4.00
2012,12,06,00,10,4.00
2012,12,06,00,11,4.00
2012,12,06,00,12,4.10
2012,12,06,00,13,4.10
2012,12,06,00,14,4.10
2012,12,06,00,15,4.10
2012,12,06,00,16,4.20
2012,12,06,00,17,4.20
2012,12,06,00,18,4.20
2012,12,06,00,19,4.10
2012,12,06,00,20,4.10
2012,12,06,00,21,4.10
2012,12,06,00,22,4.10
2012,12,06,00,23,4.10
2012,12,06,00,24,4.10
2012,12,06,00,25,4.00
2012,12,06,00,26,4.00
2012,12,06,00,27,4.00
2012,12,06,00,28,4.00
2012,12,06,00,29,4.00
2012,12,06,00,30,4.00
2012,12,06,00,31,3.90
2012,12,06,00,32,3.90
2012,12,06,00,33,3.90
2012,12,06,00,34,3.90
2012,12,06,00,35,3.90
2012,12,06,00,36,3.90
2012,12,06,00,37,3.90
2012,12,06,00,38,3.90
2012,12,06,00,39,4.00
2012,12,06,00,40,4.00
2012,12,06,00,41,4.00
2012,12,06,00,42,4.00
2012,12,06,00,43,3.90
2012,12,06,00,44,3.90
2012,12,06,00,45,3.90
2012,12,06,00,46,3.90
2012,12,06,00,47,3.90
2012,12,06,00,48,3.80
2012,12,06,00,49,3.80
2012,12,06,00,50,3.70
2012,12,06,00,51,3.70
2012,12,06,00,52,3.70
2012,12,06,00,53,3.60
2012,12,06,00,54,3.60
2012,12,06,00,55,3.60
2012,12,06,00,56,3.60
2012,12,06,00,57,3.60
2012,12,06,00,58,3.60
2012,12,06,00,59,3.60
2012,12,06,01,00,3.50
2012,12,06,01,01,3.50
2012,12,06,01,02,3.40
2012,12,06,01,03,3.40
2012,12,06,01,04,3.50
2012,12,06,01,05,3.50
2012,12,06,01,06,3.50
2012,12,06,01,07,3.60
2012,12,06,01,08,3.50
2012,12,06,01,09,3.50
2012,12,06,01,10,3.50
2012,12,06,01,11,3.40
2012,12,06,01,12,3.40
2012,12,06,01,13,3.40
2012,12,06,01,14,3.40
2012,12,06,01,15,3.40
2012,12,06,01,16,3.40
2012,12,06,01,17,3.30
2012,12,06,01,18,3.30
2012,12,06,01,19,3.30
2012,12,06,01,20,3.30
2012,12,06,01,21,3.30
2012,12,06,01,22,3.30
2012,12,06,01,23,3.30
2012,12,06,01,24,3.30
2012,12,06,01,25,3.40
2012,12,06,01,26,3.50
2012,12,06,01,27,3.50
2012,12,06,01,28,3.50
2012,12,06,01,29,3.50
2012,12,06,01,30,3.40
2012,12,06,01,31,3.40
2012,12,06,01,32,3.40
2012,12,06,01,33,3.40
2012,12,06,01,34,3.40
2012,12,06,01,35,3.40
2012,12,06,01,36,3.40
2012,12,06,01,37,3.40
2012,12,06,01,38,3.40
2012,12,06,01,39,3.40
2012,12,06,01,40,3.30
2012,12,06,01,41,3.30
2012,12,06,01,42,3.30
2012,12,06,01,43,3.30
2012,12,06,01,44,3.30
2012,12,06,01,45,3.30
2012,12,06,01,46,3.30
2012,12,06,01,47,3.30
2012,12,06,01,48,3.20
2012,12,06,01,49,3.20
2012,12,06,01,50,3.20
2012,12,06,01,51,3.20
2012,12,06,01,52,3.20
2012,12,06,01,53,3.20
2012,12,06,01,54,3.20
2012,12,06,01,55,3.20
2012,12,06,01,56,3.20
2012,12,06,01,57,3.20
2012,12,06,01,58,3.20
2012,12,06,01,59,3.20
2012,12,06,02,00,3.30
2012,12,06,02,01,3.30
2012,12,06,02,02,3.30
2012,12,06,02,03,3.30
2012,12,06,02,04,3.30
2012,12,06,02,05,3.30
2012,12,06,02,06,3.30
2012,12,06,02,07,3.30
2012,12,06,02,08,3.40
2012,12,06,02,09,3.40
2012,12,06,02,10,3.50
2012,12,06,02,11,3.50
2012,12,06,02,12,3.60
2012,12,06,02,13,3.60
2012,12,06,02,14,3.70
2012,12,06,02,15,3.80
2012,12,06,02,16,3.80
2012,12,06,02,17,3.80
2012,12,06,02,18,3.90
2012,12,06,02,19,3.90
2012,12,06,02,20,3.90
2012,12,06,02,21,3.90
2012,12,06,02,22,4.00
2012,12,06,02,23,4.00
2012,12,06,02,24,4.00
2012,12,06,02,25,4.00
2012,12,06,02,26,4.00
2012,12,06,02,27,4.00
2012,12,06,02,28,4.00
2012,12,06,02,29,4.00
2012,12,06,02,30,4.00
2012,12,06,02,31,4.00
2012,12,06,02,32,4.00
2012,12,06,02,33,3.90
2012,12,06,02,34,3.90
2012,12,06,02,35,3.90
2012,12,06,02,36,3.90
2012,12,06,02,37,4.00
2012,12,06,02,38,3.90
2012,12,06,02,39,4.00
2012,12,06,02,40,4.00
2012,12,06,02,41,4.00
2012,12,06,02,42,4.00
2012,12,06,02,43,4.00
2012,12,06,02,44,4.00
2012,12,06,02,45,4.00
2012,12,06,02,46,4.00
2012,12,06,02,47,4.00
2012,12,06,02,48,4.00
2012,12,06,02,49,4.00
2012,12,06,02,50,4.00
2012,12,06,02,51,4.00
2012,12,06,02,52,4.00
2012,12,06,02,53,4.00
2012,12,06,02,54,4.00
2012,12,06,02,55,4.00
2012,12,06,02,56,4.00
2012,12,06,02,57,4.00
2012,12,06,02,58,4.00
2012,12,06,02,59,4.00
2012,12,06,03,00,4.00
2012,12,06,03,01,4.00
2012,12,06,03,02,4.00
2012,12,06,03,03,3.90
2012,12,06,03,04,3.90
2012,12,06,03,05,3.90
2012,12,06,03,06,3.90
2012,12,06,03,07,3.90
2012,12,06,03,08,3.90
2012,12,06,03,09,3.90
2012,12,06,03,10,3.90
2012,12,06,03,11,3.90
2012,12,06,03,12,3.90
2012,12,06,03,13,3.90
2012,12,06,03,14,3.90
2012,12,06,03,15,3.90
2012,12,06,03,16,3.90
2012,12,06,03,17,3.90
2012,12,06,03,18,3.90
2012,12,06,03,19,3.90
2012,12,06,03,20,3.90
2012,12,06,03,21,3.90
2012,12,06,03,22,3.90
2012,12,06,03,23,3.90
2012,12,06,03,24,3.90
2012,12,06,03,25,3.80
2012,12,06,03,26,3.80
2012,12,06,03,27,3.80
2012,12,06,03,28,3.80
2012,12,06,03,29,3.80
2012,12,06,03,30,3.80
2012,12,06,03,31,3.80
2012,12,06,03,32,3.80
2012,12,06,03,33,3.80
2012,12,06,03,34,3.80
2012,12,06,03,35,3.80
2012,12,06,03,36,3.80
2012,12,06,03,37,3.80
2012,12,06,03,38,3.80
2012,12,06,03,39,3.80
2012,12,06,03,40,3.70
2012,12,06,03,41,3.70
2012,12,06,03,42,3.70
2012,12,06,03,43,3.70
2012,12,06,03,44,3.70
2012,12,06,03,45,3.70
2012,12,06,03,46,3.70
2012,12,06,03,47,3.70
2012,12,06,03,48,3.70
2012,12,06,03,49,3.70
2012,12,06,03,50,3.70
2012,12,06,03,51,3.80
2012,12,06,03,52,3.80
2012,12,06,03,53,3.80
2012,12,06,03,54,3.80
2012,12,06,03,55,3.80
2012,12,06,03,56,3.80
2012,12,06,03,57,3.80
2012,12,06,03,58,3.80
2012,12,06,03,59,3.80
2012,12,06,04,00,3.80
2012,12,06,04,01,3.80
2012,12,06,04,02,3.80
2012,12,06,04,03,3.80
2012,12,06,04,04,3.80
2012,12,06,04,05,3.80
2012,12,06,04,06,3.80
2012,12,06,04,07,3.80
2012,12,06,04,08,3.80
2012,12,06,04,09,3.80
2012,12,06,04,10,3.80
2012,12,06,04,11,3.80
2012,12,06,04,12,3.80
2012,12,06,04,13,3.80
2012,12,06,04,14,3.80
2012,12,06,04,15,3.80
2012,12,06,04,16,3.80
2012,12,06,04,17,3.80
2012,12,06,04,18,3.80
2012,12,06,04,19,3.80
2012,12,06,04,20,3.80
2012,12,06,04,21,3.80
2012,12,06,04,22,3.90
2012,12,06,04,23,3.90
2012,12,06,04,24,3.90
2012,12,06,04,25,3.90
2012,12,06,04,26,3.90
2012,12,06,04,27,3.90
2012,12,06,04,28,3.90
2012,12,06,04,29,3.90
2012,12,06,04,30,3.90
2012,12,06,04,31,3.90
2012,12,06,04,32,3.90
2012,12,06,04,33,3.90
2012,12,06,04,34,3.80
2012,12,06,04,35,3.80
2012,12,06,04,36,3.80
2012,12,06,04,37,3.80
2012,12,06,04,38,3.80
2012,12,06,04,39,3.80
2012,12,06,04,40,3.80
2012,12,06,04,41,3.80
2012,12,06,04,42,3.80
2012,12,06,04,43,3.80
2012,12,06,04,44,3.80
2012,12,06,04,45,3.70
2012,12,06,04,46,3.70
2012,12,06,04,47,3.70
2012,12,06,04,48,3.70
2012,12,06,04,49,3.80
2012,12,06,04,50,3.80
2012,12,06,04,51,3.90
2012,12,06,04,52,4.00
2012,12,06,04,53,4.10
2012,12,06,04,54,4.10
2012,12,06,04,55,4.20
2012,12,06,04,56,4.30
2012,12,06,04,57,4.40
2012,12,06,04,58,4.40
2012,12,06,04,59,4.50
2012,12,06,05,00,4.50
2012,12,06,05,01,4.60
2012,12,06,05,02,4.60
2012,12,06,05,03,4.60
2012,12,06,05,04,4.70
2012,12,06,05,05,4.70
2012,12,06,05,06,4.70
2012,12,06,05,07,4.70
2012,12,06,05,08,4.80
2012,12,06,05,09,4.70
2012,12,06,05,10,4.70
2012,12,06,05,11,4.70
2012,12,06,05,12,4.80
2012,12,06,05,13,4.80
2012,12,06,05,14,4.80
2012,12,06,05,15,4.80
2012,12,06,05,16,4.80
2012,12,06,05,17,4.80
2012,12,06,05,18,4.70
2012,12,06,05,19,4.70
2012,12,06,05,20,4.70
2012,12,06,05,21,4.70
2012,12,06,05,22,4.70
2012,12,06,05,23,4.70
2012,12,06,05,24,4.70
2012,12,06,05,25,4.80
2012,12,06,05,26,4.80
2012,12,06,05,27,4.80
2012,12,06,05,28,4.80
2012,12,06,05,29,4.80
2012,12,06,05,30,4.80
2012,12,06,05,31,4.80
2012,12,06,05,32,4.80
2012,12,06,05,33,4.80
2012,12,06,05,34,4.80
2012,12,06,05,35,4.80
2012,12,06,05,36,4.80
2012,12,06,05,37,4.80
2012,12,06,05,38,4.80
2012,12,06,05,39,4.80
2012,12,06,05,40,4.80
2012,12,06,05,41,4.80
2012,12,06,05,42,4.80
2012,12,06,05,43,4.80
2012,12,06,05,44,4.70
2012,12,06,05,45,4.70
2012,12,06,05,46,4.80
2012,12,06,05,47,4.80
2012,12,06,05,48,4.80
2012,12,06,05,49,4.80
2012,12,06,05,50,4.80
2012,12,06,05,51,4.80
2012,12,06,05,52,4.80
2012,12,06,05,53,4.80
2012,12,06,05,54,4.80
2012,12,06,05,55,4.80
2012,12,06,05,56,4.80
2012,12,06,05,57,4.80
2012,12,06,05,58,4.80
2012,12,06,05,59,4.80
2012,12,06,06,00,4.80
2012,12,06,06,01,4.80
2012,12,06,06,02,4.70
2012,12,06,06,03,4.70
2012,12,06,06,04,4.70
2012,12,06,06,05,4.70
2012,12,06,06,06,4.70
2012,12,06,06,07,4.70
2012,12,06,06,08,4.70
2012,12,06,06,09,4.60
2012,12,06,06,10,4.60
2012,12,06,06,11,4.60
2012,12,06,06,12,4.60
2012,12,06,06,13,4.60
2012,12,06,06,14,4.50
2012,12,06,06,15,4.50
2012,12,06,06,16,4.40
2012,12,06,06,17,4.40
2012,12,06,06,18,4.30
2012,12,06,06,19,4.30
2012,12,06,06,20,4.30
2012,12,06,06,21,4.20
2012,12,06,06,22,4.20
2012,12,06,06,23,4.20
2012,12,06,06,24,4.20
2012,12,06,06,25,4.20
2012,12,06,06,26,4.20
2012,12,06,06,27,4.20
2012,12,06,06,28,4.20
2012,12,06,06,29,4.10
2012,12,06,06,30,4.10
2012,12,06,06,31,4.10
2012,12,06,06,32,4.10
2012,12,06,06,33,4.10
2012,12,06,06,34,4.10
2012,12,06,06,35,4.10
2012,12,06,06,36,4.20
2012,12,06,06,37,4.20
2012,12,06,06,38,4.20
2012,12,06,06,39,4.20
2012,12,06,06,40,4.20
2012,12,06,06,41,4.20
2012,12,06,06,42,4.20
2012,12,06,06,43,4.20
2012,12,06,06,44,4.20
2012,12,06,06,45,4.20
2012,12,06,06,46,4.20
2012,12,06,06,47,4.20
2012,12,06,06,48,4.20
2012,12,06,06,49,4.10
2012,12,06,06,50,4.10
2012,12,06,06,51,4.10
2012,12,06,06,52,4.00
2012,12,06,06,53,4.00
2012,12,06,06,54,4.00
2012,12,06,06,55,3.90
2012,12,06,06,56,3.90
2012,12,06,06,57,3.90
2012,12,06,06,58,3.90
2012,12,06,06,59,4.00
2012,12,06,07,00,4.00
2012,12,06,07,01,4.00
2012,12,06,07,02,3.90
2012,12,06,07,03,3.90
2012,12,06,07,04,3.90
2012,12,06,07,05,3.90
2012,12,06,07,06,3.90
2012,12,06,07,07,3.90
2012,12,06,07,08,3.90
2012,12,06,07,09,3.80
2012,12,06,07,10,3.80
2012,12,06,07,11,3.90
2012,12,06,07,12,3.90
2012,12,06,07,13,3.90
2012,12,06,07,14,3.90
2012,12,06,07,15,3.90
2012,12,06,07,16,3.90
2012,12,06,07,17,3.90
2012,12,06,07,18,3.90
2012,12,06,07,19,3.90
2012,12,06,07,20,3.90
2012,12,06,07,21,3.90
2012,12,06,07,22,3.90
2012,12,06,07,23,3.90
2012,12,06,07,24,3.90
2012,12,06,07,25,3.90
2012,12,06,07,26,3.90
2012,12,06,07,27,3.90
2012,12,06,07,28,3.90
2012,12,06,07,29,3.90
2012,12,06,07,30,3.90
2012,12,06,07,31,3.90
2012,12,06,07,32,3.90
2012,12,06,07,33,4.00
2012,12,06,07,34,4.00
2012,12,06,07,35,4.00
2012,12,06,07,36,4.10
2012,12,06,07,37,4.10
2012,12,06,07,38,4.10
2012,12,06,07,39,4.10
2012,12,06,07,40,4.10
2012,12,06,07,41,4.10
2012,12,06,07,42,4.20
2012,12,06,07,43,4.20
2012,12,06,07,44,4.20
2012,12,06,07,45,4.20
2012,12,06,07,46,4.20
2012,12,06,07,47,4.20
2012,12,06,07,48,4.20
2012,12,06,07,49,4.20
2012,12,06,07,50,4.20
2012,12,06,07,51,4.20
2012,12,06,07,52,4.20
2012,12,06,07,53,4.20
2012,12,06,07,54,4.20
2012,12,06,07,55,4.20
2012,12,06,07,56,4.20
2012,12,06,07,57,4.20
2012,12,06,07,58,4.20
2012,12,06,07,59,4.20
2012,12,06,08,00,4.20
2012,12,06,08,01,4.20
2012,12,06,08,02,4.20
2012,12,06,08,03,4.20
2012,12,06,08,04,4.20
2012,12,06,08,05,4.20
2012,12,06,08,06,4.20
2012,12,06,08,07,4.20
2012,12,06,08,08,4.30
2012,12,06,08,09,4.30
2012,12,06,08,10,4.30
2012,12,06,08,11,4.40
2012,12,06,08,12,4.40
2012,12,06,08,13,4.40
2012,12,06,08,14,4.40
2012,12,06,08,15,4.30
2012,12,06,08,16,4.30
2012,12,06,08,17,4.30
2012,12,06,08,18,4.20
2012,12,06,08,19,4.20
2012,12,06,08,20,4.10
2012,12,06,08,21,4.10
2012,12,06,08,22,4.10
2012,12,06,08,23,4.00
2012,12,06,08,24,4.00
2012,12,06,08,25,3.90
2012,12,06,08,26,3.90
2012,12,06,08,27,3.90
2012,12,06,08,28,3.90
2012,12,06,08,29,3.80
2012,12,06,08,30,3.80
2012,12,06,08,31,3.80
2012,12,06,08,32,3.80
2012,12,06,08,33,3.80
2012,12,06,08,34,3.80
2012,12,06,08,35,3.80
2012,12,06,08,36,3.80
2012,12,06,08,37,3.80
2012,12,06,08,38,3.80
2012,12,06,08,39,3.80
2012,12,06,08,40,3.80
2012,12,06,08,41,3.80
2012,12,06,08,42,3.80
2012,12,06,08,43,3.80
2012,12,06,08,44,3.80
2012,12,06,08,45,3.80
2012,12,06,08,46,3.80
2012,12,06,08,47,3.80
2012,12,06,08,48,3.80
2012,12,06,08,49,3.80
2012,12,06,08,50,3.80
2012,12,06,08,51,3.80
2012,12,06,08,52,3.80
2012,12,06,08,53,3.80
2012,12,06,08,54,3.80
2012,12,06,08,55,3.80
2012,12,06,08,56,3.80
2012,12,06,08,57,3.80
2012,12,06,08,58,3.80
2012,12,06,08,59,3.80
2012,12,06,09,00,3.80
2012,12,06,09,01,3.80
2012,12,06,09,02,3.80
2012,12,06,09,03,3.70
2012,12,06,09,04,3.70
2012,12,06,09,05,3.70
2012,12,06,09,06,3.70
2012,12,06,09,07,3.70
2012,12,06,09,08,3.70
2012,12,06,09,09,3.70
2012,12,06,09,10,3.70
2012,12,06,09,11,3.80
2012,12,06,09,12,3.80
2012,12,06,09,13,3.80
2012,12,06,09,14,3.80
2012,12,06,09,15,3.80
2012,12,06,09,16,3.80
2012,12,06,09,17,3.80
2012,12,06,09,18,3.90
2012,12,06,09,19,3.90
2012,12,06,09,20,3.90
2012,12,06,09,21,3.90
2012,12,06,09,22,3.90
2012,12,06,09,23,4.00
2012,12,06,09,24,4.00
2012,12,06,09,25,4.10
2012,12,06,09,26,4.10
2012,12,06,09,27,4.10
2012,12,06,09,28,4.10
2012,12,06,09,29,4.10
2012,12,06,09,30,4.10
2012,12,06,09,31,4.20
2012,12,06,09,32,4.20
2012,12,06,09,33,4.20
2012,12,06,09,34,4.20
2012,12,06,09,35,4.20
2012,12,06,09,36,4.20
2012,12,06,09,37,4.20
2012,12,06,09,38,4.20
2012,12,06,09,39,4.20
2012,12,06,09,40,4.20
2012,12,06,09,41,4.20
2012,12,06,09,42,4.20
2012,12,06,09,43,4.20
2012,12,06,09,44,4.20
2012,12,06,09,45,4.20
2012,12,06,09,46,4.30
2012,12,06,09,47,4.30
2012,12,06,09,48,4.30
2012,12,06,09,49,4.30
2012,12,06,09,50,4.30
2012,12,06,09,51,4.30
2012,12,06,09,52,4.30
2012,12,06,09,53,4.30
2012,12,06,09,54,4.40
2012,12,06,09,55,4.40
2012,12,06,09,56,4.40
2012,12,06,09,57,4.40
2012,12,06,09,58,4.40
2012,12,06,09,59,4.40
2012,12,06,10,00,4.40
2012,12,06,10,01,4.40
2012,12,06,10,02,4.40
2012,12,06,10,03,4.50
2012,12,06,10,04,4.50
2012,12,06,10,05,4.50
2012,12,06,10,06,4.50
2012,12,06,10,07,4.50
2012,12,06,10,08,4.50
2012,12,06,10,09,4.50
2012,12,06,10,10,4.60
2012,12,06,10,11,4.60
2012,12,06,10,12,4.60
2012,12,06,10,13,4.60
2012,12,06,10,14,4.60
2012,12,06,10,15,4.60
2012,12,06,10,16,4.60
2012,12,06,10,17,4.60
2012,12,06,10,18,4.60
2012,12,06,10,19,4.60
2012,12,06,10,20,4.60
2012,12,06,10,21,4.70
2012,12,06,10,22,4.70
2012,12,06,10,23,4.70
2012,12,06,10,24,4.70
2012,12,06,10,25,4.70
2012,12,06,10,26,4.70
2012,12,06,10,27,4.70
2012,12,06,10,28,4.80
2012,12,06,10,29,4.80
2012,12,06,10,30,4.80
2012,12,06,10,31,4.80
2012,12,06,10,32,4.80
2012,12,06,10,33,4.80
2012,12,06,10,34,4.80
2012,12,06,10,35,4.90
2012,12,06,10,36,4.90
2012,12,06,10,37,4.90
2012,12,06,10,38,4.90
2012,12,06,10,39,4.90
2012,12,06,10,40,4.90
2012,12,06,10,41,4.90
2012,12,06,10,42,4.90
2012,12,06,10,43,5.00
2012,12,06,10,44,5.00
2012,12,06,10,45,5.00
2012,12,06,10,46,5.00
2012,12,06,10,47,5.10
2012,12,06,10,48,5.10
2012,12,06,10,49,5.10
2012,12,06,10,50,5.20
2012,12,06,10,51,5.20
2012,12,06,10,52,5.20
2012,12,06,10,53,5.20
2012,12,06,10,54,5.20
2012,12,06,10,55,5.20
2012,12,06,10,56,5.20
2012,12,06,10,57,5.20
2012,12,06,10,58,5.30
2012,12,06,10,59,5.30
2012,12,06,11,00,5.30
2012,12,06,11,01,5.30
2012,12,06,11,02,5.40
2012,12,06,11,03,5.40
2012,12,06,11,04,5.40
2012,12,06,11,05,5.40
2012,12,06,11,06,5.50
2012,12,06,11,07,5.50
2012,12,06,11,08,5.50
2012,12,06,11,09,5.60
2012,12,06,11,10,5.60
2012,12,06,11,11,5.60
2012,12,06,11,12,5.60
2012,12,06,11,13,5.60
2012,12,06,11,14,5.60
2012,12,06,11,15,5.70
2012,12,06,11,16,5.70
2012,12,06,11,17,5.70
2012,12,06,11,18,5.70
2012,12,06,11,19,5.70
2012,12,06,11,20,5.70
2012,12,06,11,21,5.70
2012,12,06,11,22,5.70
2012,12,06,11,23,5.70
2012,12,06,11,24,5.70
2012,12,06,11,25,5.80
2012,12,06,11,26,5.80
2012,12,06,11,27,5.80
2012,12,06,11,28,5.80
2012,12,06,11,29,5.80
2012,12,06,11,30,5.80
2012,12,06,11,31,5.80
2012,12,06,11,32,5.80
2012,12,06,11,33,5.80
2012,12,06,11,34,5.80
2012,12,06,11,35,5.80
2012,12,06,11,36,5.90
2012,12,06,11,37,5.90
2012,12,06,11,38,5.90
2012,12,06,11,39,5.90
2012,12,06,11,40,5.90
2012,12,06,11,41,5.90
2012,12,06,11,42,5.90
2012,12,06,11,43,5.90
2012,12,06,11,44,5.90
2012,12,06,11,45,6.00
2012,12,06,11,46,6.00
2012,12,06,11,47,6.00
2012,12,06,11,48,6.00
2012,12,06,11,49,6.00
2012,12,06,11,50,6.00
2012,12,06,11,51,6.10
2012,12,06,11,52,6.10
2012,12,06,11,53,6.10
2012,12,06,11,54,6.10
2012,12,06,11,55,6.10
2012,12,06,11,56,6.10
2012,12,06,11,57,6.10
2012,12,06,11,58,6.10
2012,12,06,11,59,6.10
2012,12,06,12,00,6.10
2012,12,06,12,01,6.10
2012,12,06,12,02,6.20
2012,12,06,12,03,6.20
2012,12,06,12,04,6.20
2012,12,06,12,05,6.20
2012,12,06,12,06,6.20
2012,12,06,12,07,6.20
2012,12,06,12,08,6.20
2012,12,06,12,09,6.20
2012,12,06,12,10,6.20
2012,12,06,12,11,6.30
2012,12,06,12,12,6.30
2012,12,06,12,13,6.30
2012,12,06,12,14,6.30
2012,12,06,12,15,6.30
2012,12,06,12,16,6.30
2012,12,06,12,17,6.30
2012,12,06,12,18,6.30
2012,12,06,12,19,6.30
2012,12,06,12,20,6.40
2012,12,06,12,21,6.40
2012,12,06,12,22,6.40
2012,12,06,12,23,6.40
2012,12,06,12,24,6.40
2012,12,06,12,25,6.40
2012,12,06,12,26,6.40
2012,12,06,12,27,6.40
2012,12,06,12,28,6.40
2012,12,06,12,29,6.50
2012,12,06,12,30,6.50
2012,12,06,12,31,6.60
2012,12,06,12,32,6.60
2012,12,06,12,33,6.60
2012,12,06,12,34,6.60
2012,12,06,12,35,6.60
2012,12,06,12,36,6.60
2012,12,06,12,37,6.60
2012,12,06,12,38,6.60
2012,12,06,12,39,6.60
2012,12,06,12,40,6.60
2012,12,06,12,41,6.60
2012,12,06,12,42,6.60
2012,12,06,12,43,6.60
2012,12,06,12,44,6.60
2012,12,06,12,45,6.70
2012,12,06,12,46,6.70
2012,12,06,12,47,6.70
2012,12,06,12,48,6.70
2012,12,06,12,49,6.70
2012,12,06,12,50,6.70
2012,12,06,12,51,6.80
2012,12,06,12,52,6.80
2012,12,06,12,53,6.80
2012,12,06,12,54,6.90
2012,12,06,12,55,6.90
2012,12,06,12,56,6.90
2012,12,06,12,57,6.90
2012,12,06,12,58,6.90
2012,12,06,12,59,6.90
2012,12,06,13,00,6.90
2012,12,06,13,01,6.90
2012,12,06,13,02,6.80
2012,12,06,13,03,6.80
2012,12,06,13,04,6.80
2012,12,06,13,05,6.80
2012,12,06,13,06,6.80
2012,12,06,13,07,6.70
2012,12,06,13,08,6.70
2012,12,06,13,09,6.70
2012,12,06,13,10,6.70
2012,12,06,13,11,6.70
2012,12,06,13,12,6.70
2012,12,06,13,13,6.70
2012,12,06,13,14,6.70
2012,12,06,13,15,6.70
2012,12,06,13,16,6.70
2012,12,06,13,17,6.70
2012,12,06,13,18,6.70
2012,12,06,13,19,6.70
2012,12,06,13,20,6.70
2012,12,06,13,21,6.70
2012,12,06,13,22,6.70
2012,12,06,13,23,6.70
2012,12,06,13,24,6.60
2012,12,06,13,25,6.60
2012,12,06,13,26,6.60
2012,12,06,13,27,6.60
2012,12,06,13,28,6.60
2012,12,06,13,29,6.60
2012,12,06,13,30,6.50
2012,12,06,13,31,6.50
2012,12,06,13,32,6.50
2012,12,06,13,33,6.50
2012,12,06,13,34,6.50
2012,12,06,13,35,6.50
2012,12,06,13,36,6.50
2012,12,06,13,37,6.50
2012,12,06,13,38,6.50
2012,12,06,13,39,6.40
2012,12,06,13,40,6.40
2012,12,06,13,41,6.40
2012,12,06,13,42,6.40
2012,12,06,13,43,6.40
2012,12,06,13,44,6.40
2012,12,06,13,45,6.40
2012,12,06,13,46,6.40
2012,12,06,13,47,6.40
2012,12,06,13,48,6.40
2012,12,06,13,49,6.40
2012,12,06,13,50,6.40
2012,12,06,13,51,6.40
2012,12,06,13,52,6.40
2012,12,06,13,53,6.40
2012,12,06,13,54,6.50
2012,12,06,13,55,6.50
2012,12,06,13,56,6.50
2012,12,06,13,57,6.50
2012,12,06,13,58,6.50
2012,12,06,13,59,6.50
2012,12,06,14,00,6.50
2012,12,06,14,01,6.50
2012,12,06,14,02,6.50
2012,12,06,14,03,6.40
2012,12,06,14,04,6.40
2012,12,06,14,05,6.40
2012,12,06,14,06,6.40
2012,12,06,14,07,6.40
2012,12,06,14,08,6.40
2012,12,06,14,09,6.40
2012,12,06,14,10,6.40
2012,12,06,14,11,6.40
2012,12,06,14,12,6.40
2012,12,06,14,13,6.40
2012,12,06,14,14,6.40
2012,12,06,14,15,6.40
2012,12,06,14,16,6.40
2012,12,06,14,17,6.30
2012,12,06,14,18,6.30
2012,12,06,14,19,6.30
2012,12,06,14,20,6.30
2012,12,06,14,21,6.30
2012,12,06,14,22,6.30
2012,12,06,14,23,6.30
2012,12,06,14,24,6.30
2012,12,06,14,25,6.30
2012,12,06,14,26,6.30
2012,12,06,14,27,6.30
2012,12,06,14,28,6.30
2012,12,06,14,29,6.30
2012,12,06,14,30,6.30
2012,12,06,14,31,6.30
2012,12,06,14,32,6.30
2012,12,06,14,33,6.30
2012,12,06,14,34,6.30
2012,12,06,14,35,6.30
2012,12,06,14,36,6.30
2012,12,06,14,37,6.30
2012,12,06,14,38,6.30
2012,12,06,14,39,6.30
2012,12,06,14,40,6.30
2012,12,06,14,41,6.30
2012,12,06,14,42,6.30
2012,12,06,14,43,6.20
2012,12,06,14,44,6.20
2012,12,06,14,45,6.20
2012,12,06,14,46,6.20
2012,12,06,14,47,6.20
2012,12,06,14,48,6.20
2012,12,06,14,49,6.20
2012,12,06,14,50,6.20
2012,12,06,14,51,6.20
2012,12,06,14,52,6.20
2012,12,06,14,53,6.20
2012,12,06,14,54,6.20
2012,12,06,14,55,6.20
2012,12,06,14,56,6.20
2012,12,06,14,57,6.20
2012,12,06,14,58,6.20
2012,12,06,14,59,6.20
2012,12,06,15,00,6.20
2012,12,06,15,01,6.20
2012,12,06,15,02,6.20
2012,12,06,15,03,6.20
2012,12,06,15,04,6.20
2012,12,06,15,05,6.20
2012,12,06,15,06,6.20
2012,12,06,15,07,6.20
2012,12,06,15,08,6.10
2012,12,06,15,09,6.10
2012,12,06,15,10,6.10
2012,12,06,15,11,6.10
2012,12,06,15,12,6.10
2012,12,06,15,13,6.10
2012,12,06,15,14,6.10
2012,12,06,15,15,6.00
2012,12,06,15,16,6.00
2012,12,06,15,17,6.00
2012,12,06,15,18,6.00
2012,12,06,15,19,5.90
2012,12,06,15,20,5.90
2012,12,06,15,21,5.90
2012,12,06,15,22,5.90
2012,12,06,15,23,5.90
2012,12,06,15,24,5.90
2012,12,06,15,25,5.90
2012,12,06,15,26,5.90
2012,12,06,15,27,5.90
2012,12,06,15,28,5.90
2012,12,06,15,29,5.90
2012,12,06,15,30,5.90
2012,12,06,15,31,5.80
2012,12,06,15,32,5.80
2012,12,06,15,33,5.90
2012,12,06,15,34,5.90
2012,12,06,15,35,5.90
2012,12,06,15,36,5.90
2012,12,06,15,37,5.90
2012,12,06,15,38,5.90
2012,12,06,15,39,5.90
2012,12,06,15,40,5.80
2012,12,06,15,41,5.80
2012,12,06,15,42,5.80
2012,12,06,15,43,5.80
2012,12,06,15,44,5.80
2012,12,06,15,45,5.80
2012,12,06,15,46,5.80
2012,12,06,15,47,5.80
2012,12,06,15,48,5.80
2012,12,06,15,49,5.80
2012,12,06,15,50,5.80
2012,12,06,15,51,5.80
2012,12,06,15,52,5.80
2012,12,06,15,53,5.80
2012,12,06,15,54,5.80
2012,12,06,15,55,5.80
2012,12,06,15,56,5.80
2012,12,06,15,57,5.80
2012,12,06,15,58,5.80
2012,12,06,15,59,5.80
2012,12,06,16,00,5.80
2012,12,06,16,01,5.70
2012,12,06,16,02,5.70
2012,12,06,16,03,5.70
2012,12,06,16,04,5.70
2012,12,06,16,05,5.70
2012,12,06,16,06,5.70
2012,12,06,16,07,5.60
2012,12,06,16,08,5.60
2012,12,06,16,09,5.60
2012,12,06,16,10,5.60
2012,12,06,16,11,5.60
2012,12,06,16,12,5.50
2012,12,06,16,13,5.50
2012,12,06,16,14,5.50
2012,12,06,16,15,5.40
2012,12,06,16,16,5.40
2012,12,06,16,17,5.40
2012,12,06,16,18,5.30
2012,12,06,16,19,5.30
2012,12,06,16,20,5.20
2012,12,06,16,21,5.20
2012,12,06,16,22,5.20
2012,12,06,16,23,5.10
2012,12,06,16,24,5.10
2012,12,06,16,25,5.00
2012,12,06,16,26,4.90
2012,12,06,16,27,4.90
2012,12,06,16,28,4.90
2012,12,06,16,29,4.80
2012,12,06,16,30,4.80
2012,12,06,16,31,4.80
2012,12,06,16,32,4.80
2012,12,06,16,33,4.70
2012,12,06,16,34,4.70
2012,12,06,16,35,4.70
2012,12,06,16,36,4.70
2012,12,06,16,37,4.60
2012,12,06,16,38,4.60
2012,12,06,16,39,4.60
2012,12,06,16,40,4.60
2012,12,06,16,41,4.50
2012,12,06,16,42,4.40
2012,12,06,16,43,4.40
2012,12,06,16,44,4.30
2012,12,06,16,45,4.30
2012,12,06,16,46,4.20
2012,12,06,16,47,4.20
2012,12,06,16,48,4.20
2012,12,06,16,49,4.10
2012,12,06,16,50,4.10
2012,12,06,16,51,4.10
2012,12,06,16,52,4.00
2012,12,06,16,53,4.00
2012,12,06,16,54,3.90
2012,12,06,16,55,3.90
2012,12,06,16,56,3.90
2012,12,06,16,57,3.80
2012,12,06,16,58,3.80
2012,12,06,16,59,3.80
2012,12,06,17,00,3.80
2012,12,06,17,01,3.80
2012,12,06,17,02,3.80
2012,12,06,17,03,3.80
2012,12,06,17,04,3.80
2012,12,06,17,05,3.70
2012,12,06,17,06,3.70
2012,12,06,17,07,3.70
2012,12,06,17,08,3.70
2012,12,06,17,09,3.70
2012,12,06,17,10,3.60
2012,12,06,17,11,3.60
2012,12,06,17,12,3.60
2012,12,06,17,13,3.50
2012,12,06,17,14,3.50
2012,12,06,17,15,3.40
2012,12,06,17,16,3.40
2012,12,06,17,17,3.40
2012,12,06,17,18,3.40
2012,12,06,17,19,3.40
2012,12,06,17,20,3.40
2012,12,06,17,21,3.40
2012,12,06,17,22,3.30
2012,12,06,17,23,3.30
2012,12,06,17,24,3.30
2012,12,06,17,25,3.20
2012,12,06,17,26,3.20
2012,12,06,17,27,3.20
2012,12,06,17,28,3.10
2012,12,06,17,29,3.10
2012,12,06,17,30,3.10
2012,12,06,17,31,3.00
2012,12,06,17,32,3.00
2012,12,06,17,33,2.90
2012,12,06,17,34,2.90
2012,12,06,17,35,2.90
2012,12,06,17,36,2.90
2012,12,06,17,37,2.80
2012,12,06,17,38,2.80
2012,12,06,17,39,2.80
2012,12,06,17,40,2.80
2012,12,06,17,41,2.80
2012,12,06,17,42,2.70
2012,12,06,17,43,2.70
2012,12,06,17,44,2.70
2012,12,06,17,45,2.70
2012,12,06,17,46,2.70
2012,12,06,17,47,2.70
2012,12,06,17,48,2.70
2012,12,06,17,49,2.70
2012,12,06,17,50,2.70
2012,12,06,17,51,2.60
2012,12,06,17,52,2.60
2012,12,06,17,53,2.60
2012,12,06,17,54,2.50
2012,12,06,17,55,2.50
2012,12,06,17,56,2.50
2012,12,06,17,57,2.50
2012,12,06,17,58,2.50
2012,12,06,17,59,2.50
2012,12,06,18,00,2.40
2012,12,06,18,01,2.50
2012,12,06,18,02,2.40
2012,12,06,18,03,2.40
2012,12,06,18,04,2.40
2012,12,06,18,05,2.40
2012,12,06,18,06,2.30